Satellite: AO-40 Catalog number: 26609 Epoch time: 01176.01392904 Element set: 101 Inclination: 5.3119 deg RA of node: 179.7273 deg Eccentricity: 0.8009868 Arg of perigee: 290.2899 deg Mean anomaly: 6.8755 deg Mean motion: 1.25428348 rev/day Decay rate: 0.00000e+00 rev/day^2 Epoch rev: 300 Checksum: 279